| time (UTC) | temp F | wind direction | speed MPH | gust MPH | rain 1hr in | rain 24hr in | rain mn in | humidity % | barometer mb |
| 20260508133027 | 61 | 123 | 0.0 | 0.0 | 0.00 | 0.00 | 0.00 | 39 | 1015.4 |
| 20260508133022 | 52 | 179 | 0.0 | 2.0 | 0.00 | 0.02 | 0.00 | 85 | 1011.0 |
| 20260508132507 | 51 | 213 | 0.0 | 2.0 | 0.00 | 0.02 | 0.00 | 86 | 1011.1 |
| 20260508132010 | 51 | 181 | 0.0 | 3.0 | 0.00 | 0.02 | 0.00 | 89 | 1011.1 |
| 20260508131525 | 50 | 167 | 0.0 | 3.0 | 0.00 | 0.02 | 0.00 | 89 | 1011.1 |
| 20260508131521 | 61 | 123 | 0.0 | 0.0 | 0.00 | 0.00 | 0.00 | 41 | 1015.2 |
| 20260508131010 | 49 | 170 | 0.0 | 2.0 | 0.00 | 0.02 | 0.00 | 90 | 1011.1 |
| 20260508130511 | 49 | 176 | 0.0 | 3.0 | 0.00 | 0.02 | 0.00 | 91 | 1011.2 |
| 20260508130016 | 59 | 123 | 0.0 | 0.0 | 0.00 | 0.00 | 0.00 | 41 | 1015.3 |
| 20260508130013 | 49 | 168 | 0.0 | 3.0 | 0.00 | 0.02 | 0.00 | 92 | 1011.2 |
| 20260508125504 | 48 | 124 | 0.0 | 3.0 | 0.00 | 0.02 | 0.00 | 92 | 1011.2 |
| 20260508125004 | 47 | 102 | 0.0 | 1.0 | 0.00 | 0.02 | 0.00 | 93 | 1011.3 |
| 20260508124517 | 47 | 100 | 0.0 | 1.0 | 0.00 | 0.02 | 0.00 | 93 | 1011.3 |
| 20260508124509 | 0 | 0.0 | 0.0 | 0.00 | 0.00 | 0.00 | 1015.3 | ||
| 20260508124006 | 46 | 100 | 0.0 | 1.0 | 0.00 | 0.02 | 0.00 | 93 | 1011.3 |
| 20260508123505 | 46 | 105 | 0.0 | 1.0 | 0.00 | 0.02 | 0.00 | 93 | 1011.4 |
| 20260508123024 | 45 | 179 | 0.0 | 1.0 | 0.00 | 0.02 | 0.00 | 93 | 1011.4 |
| 20260508123004 | 0 | 0.0 | 0.0 | 0.00 | 0.00 | 0.00 | 1015.7 | ||
| 20260508122508 | 45 | 179 | 0.0 | 1.0 | 0.00 | 0.02 | 0.00 | 94 | 1011.4 |
| 20260508122008 | 45 | 179 | 0.0 | 0.0 | 0.00 | 0.02 | 0.00 | 93 | 1011.4 |
| 20260508121602 | 0 | 0.0 | 0.0 | 0.00 | 0.00 | 0.00 | 1015.6 | ||
| 20260508121525 | 44 | 179 | 0.0 | 1.0 | 0.00 | 0.02 | 0.00 | 93 | 1011.3 |
| 20260508121009 | 44 | 179 | 0.0 | 1.0 | 0.00 | 0.02 | 0.00 | 93 | 1011.3 |
| 20260508120508 | 44 | 179 | 0.0 | 0.0 | 0.00 | 0.02 | 0.00 | 94 | 1011.6 |
| 20260508120053 | 0 | 0.0 | 0.0 | 0.00 | 0.00 | 0.00 | 1015.7 | ||
| 20260508120025 | 44 | 179 | 0.0 | 1.0 | 0.00 | 0.02 | 0.00 | 94 | 1011.5 |
| 20260508115509 | 43 | 179 | 0.0 | 1.0 | 0.00 | 0.02 | 0.00 | 94 | 1011.5 |
| 20260508115010 | 43 | 179 | 0.0 | 0.0 | 0.00 | 0.02 | 0.00 | 94 | 1011.5 |
| 20260508114547 | 0 | 0.0 | 0.0 | 0.00 | 0.00 | 0.00 | 1015.6 | ||
| 20260508114516 | 43 | 179 | 0.0 | 0.0 | 0.00 | 0.02 | 0.00 | 94 | 1011.5 |
| 20260508114005 | 43 | 179 | 0.0 | 1.0 | 0.00 | 0.02 | 0.00 | 94 | 1011.4 |
| 20260508113504 | 42 | 178 | 0.0 | 1.0 | 0.00 | 0.02 | 0.00 | 94 | 1011.3 |
| 20260508113055 | 0 | 0.0 | 0.0 | 0.00 | 0.00 | 0.00 | 1015.5 | ||
| 20260508113021 | 42 | 179 | 0.0 | 0.0 | 0.00 | 0.02 | 0.00 | 94 | 1011.2 |
| 20260508112505 | 42 | 179 | 0.0 | 0.0 | 0.00 | 0.02 | 0.00 | 94 | 1011.2 |
| 20260508112005 | 41 | 179 | 0.0 | 0.0 | 0.00 | 0.02 | 0.00 | 94 | 1011.1 |
| 20260508111537 | 0 | 113 | 0.0 | 0.0 | 0.00 | 0.00 | 0.00 | 1015.8 | |
| 20260508111525 | 41 | 179 | 0.0 | 0.0 | 0.00 | 0.02 | 0.00 | 93 | 1011.2 |
| 20260508111009 | 41 | 179 | 0.0 | 0.0 | 0.00 | 0.02 | 0.00 | 93 | 1011.1 |
| 20260508110509 | 41 | 178 | 0.0 | 2.0 | 0.00 | 0.02 | 0.00 | 93 | 1011.1 |
| 20260508110032 | 53 | 123 | 0.0 | 1.0 | 0.00 | 0.00 | 0.00 | 40 | 1016.0 |
| 20260508110027 | 41 | 179 | 0.0 | 2.0 | 0.00 | 0.02 | 0.00 | 93 | 1011.2 |
| 20260508105511 | 40 | 179 | 0.0 | 1.0 | 0.00 | 0.02 | 0.00 | 93 | 1011.0 |
| 20260508105013 | 40 | 182 | 0.0 | 1.0 | 0.00 | 0.02 | 0.00 | 93 | 1011.0 |
| 20260508104531 | 53 | 123 | 0.0 | 0.0 | 0.00 | 0.00 | 0.00 | 39 | 1016.0 |
| 20260508104526 | 40 | 182 | 0.0 | 1.0 | 0.00 | 0.02 | 0.00 | 93 | 1011.0 |
| 20260508104011 | 40 | 182 | 0.0 | 0.0 | 0.00 | 0.02 | 0.00 | 92 | 1011.1 |
| 20260508103510 | 40 | 182 | 0.0 | 0.0 | 0.00 | 0.02 | 0.00 | 93 | 1011.1 |
| 20260508103034 | 53 | 123 | 0.0 | 0.0 | 0.00 | 0.00 | 0.00 | 38 | 1015.8 |
| 20260508103019 | 40 | 182 | 0.0 | 0.0 | 0.00 | 0.02 | 0.00 | 93 | 1011.1 |
| 20260508102511 | 40 | 182 | 0.0 | 1.0 | 0.00 | 0.02 | 0.00 | 93 | 1011.1 |
| 20260508102008 | 40 | 182 | 0.0 | 1.0 | 0.00 | 0.02 | 0.00 | 93 | 1011.1 |
| 20260508101530 | 54 | 123 | 0.0 | 1.0 | 0.00 | 0.00 | 0.00 | 39 | 1015.4 |
| 20260508101520 | 40 | 298 | 0.0 | 1.0 | 0.00 | 0.02 | 0.00 | 93 | 1011.0 |
| 20260508101004 | 40 | 302 | 0.0 | 1.0 | 0.00 | 0.02 | 0.00 | 93 | 1010.9 |
| 20260508100503 | 40 | 302 | 0.0 | 1.0 | 0.00 | 0.02 | 0.00 | 92 | 1011.0 |
| 20260508100025 | 54 | 146 | 0.0 | 4.0 | 0.00 | 0.00 | 0.00 | 39 | 1015.2 |
| 20260508100005 | 40 | 302 | 0.0 | 1.0 | 0.00 | 0.02 | 0.00 | 92 | 1011.0 |
| 20260508095503 | 40 | 302 | 0.0 | 0.0 | 0.00 | 0.02 | 0.00 | 92 | 1011.1 |
| 20260508095002 | 40 | 302 | 0.0 | 0.0 | 0.00 | 0.02 | 0.00 | 92 | 1011.1 |
| 20260508094523 | 53 | 115 | 0.0 | 0.0 | 0.00 | 0.00 | 0.00 | 38 | 1015.3 |
| 20260508094509 | 41 | 302 | 0.0 | 0.0 | 0.00 | 0.02 | 0.00 | 92 | 1011.2 |
| 20260508094006 | 41 | 302 | 0.0 | 0.0 | 0.00 | 0.02 | 0.00 | 92 | 1011.3 |
| 20260508093504 | 41 | 302 | 0.0 | 0.0 | 0.00 | 0.02 | 0.00 | 92 | 1011.3 |
| 20260508093021 | 54 | 113 | 2.0 | 3.0 | 0.00 | 0.00 | 0.00 | 38 | 1015.0 |
| 20260508092504 | 41 | 302 | 0.0 | 0.0 | 0.00 | 0.02 | 0.00 | 92 | 1011.2 |
| 20260508092004 | 41 | 302 | 0.0 | 0.0 | 0.00 | 0.02 | 0.00 | 92 | 1011.3 |
| 20260508091619 | 54 | 121 | 3.0 | 4.0 | 0.00 | 0.00 | 0.00 | 38 | 1015.3 |
| 20260508091524 | 41 | 302 | 0.0 | 0.0 | 0.00 | 0.02 | 0.00 | 92 | 1011.4 |
| 20260508091003 | 41 | 302 | 0.0 | 0.0 | 0.00 | 0.02 | 0.00 | 91 | 1011.3 |
| 20260508090503 | 41 | 302 | 0.0 | 0.0 | 0.00 | 0.02 | 0.00 | 92 | 1011.3 |
| 20260508090024 | 54 | 119 | 0.0 | 0.0 | 0.00 | 0.00 | 0.00 | 37 | 1015.6 |
| 20260508090005 | 41 | 302 | 0.0 | 0.0 | 0.00 | 0.02 | 0.00 | 92 | 1011.3 |
| 20260508085502 | 41 | 302 | 0.0 | 0.0 | 0.00 | 0.02 | 0.00 | 92 | 1011.3 |
| 20260508085002 | 41 | 302 | 0.0 | 0.0 | 0.00 | 0.02 | 0.00 | 91 | 1011.4 |
| 20260508084513 | 54 | 119 | 0.0 | 4.0 | 0.00 | 0.00 | 0.00 | 38 | 1015.7 |
| 20260508084508 | 42 | 302 | 0.0 | 1.0 | 0.00 | 0.02 | 0.00 | 91 | 1011.3 |
| 20260508084003 | 42 | 302 | 0.0 | 1.0 | 0.00 | 0.02 | 0.00 | 91 | 1011.4 |
| 20260508083504 | 42 | 302 | 0.0 | 0.0 | 0.00 | 0.02 | 0.00 | 91 | 1011.4 |
| 20260508083012 | 42 | 302 | 0.0 | 0.0 | 0.00 | 0.02 | 0.00 | 91 | 1011.5 |
| 20260508083009 | 53 | 128 | 0.0 | 0.0 | 0.00 | 0.00 | 0.00 | 36 | 1016.1 |
| 20260508082504 | 42 | 302 | 0.0 | 0.0 | 0.00 | 0.02 | 0.00 | 91 | 1011.5 |
| 20260508082004 | 42 | 302 | 0.0 | 0.0 | 0.00 | 0.02 | 0.00 | 91 | 1011.5 |
| 20260508081523 | 42 | 302 | 0.0 | 0.0 | 0.00 | 0.02 | 0.00 | 91 | 1011.5 |
| 20260508081509 | 53 | 127 | 0.0 | 0.0 | 0.00 | 0.00 | 0.00 | 36 | 1016.5 |
| 20260508081004 | 43 | 302 | 0.0 | 0.0 | 0.00 | 0.02 | 0.00 | 91 | 1011.5 |
| 20260508080507 | 43 | 302 | 0.0 | 0.0 | 0.00 | 0.02 | 0.00 | 91 | 1011.5 |
| 20260508080017 | 43 | 302 | 0.0 | 0.0 | 0.00 | 0.02 | 0.00 | 91 | 1011.7 |
| 20260508080004 | 54 | 127 | 0.0 | 0.0 | 0.00 | 0.00 | 0.00 | 36 | 1016.2 |
| 20260508075504 | 43 | 302 | 0.0 | 0.0 | 0.00 | 0.02 | 0.00 | 91 | 1011.7 |
| 20260508075002 | 43 | 302 | 0.0 | 1.0 | 0.00 | 0.02 | 0.00 | 91 | 1011.7 |
| 20260508074504 | 54 | 127 | 0.0 | 0.0 | 0.00 | 0.00 | 0.00 | 33 | 1016.1 |
| 20260508074003 | 43 | 302 | 0.0 | 1.0 | 0.00 | 0.02 | 0.00 | 91 | 1011.7 |
| 20260508073502 | 44 | 302 | 0.0 | 2.0 | 0.00 | 0.02 | 0.00 | 91 | 1011.8 |
| 20260508073100 | 53 | 128 | 0.0 | 0.0 | 0.00 | 0.00 | 0.00 | 27 | 1016.0 |
| 20260508073008 | 44 | 302 | 0.0 | 2.0 | 0.00 | 0.02 | 0.00 | 91 | 1011.9 |
| 20260508072503 | 44 | 274 | 0.0 | 2.0 | 0.00 | 0.02 | 0.00 | 91 | 1011.8 |
| 20260508072003 | 44 | 274 | 0.0 | 2.0 | 0.00 | 0.02 | 0.00 | 90 | 1011.9 |
| 20260508071558 | 54 | 128 | 0.0 | 0.0 | 0.00 | 0.00 | 0.00 | 26 | 1016.0 |
| 20260508071522 | 44 | 302 | 0.0 | 3.0 | 0.00 | 0.02 | 0.00 | 90 | 1011.9 |
| 20260508071006 | 44 | 300 | 1.0 | 3.0 | 0.00 | 0.02 | 0.00 | 90 | 1011.8 |
| 20260508070504 | 44 | 280 | 0.0 | 2.0 | 0.00 | 0.02 | 0.00 | 90 | 1011.9 |
| 20260508070053 | 54 | 128 | 0.0 | 0.0 | 0.00 | 0.00 | 0.00 | 26 | 1016.1 |
| 20260508070019 | 44 | 296 | 0.0 | 1.0 | 0.00 | 0.02 | 0.00 | 90 | 1011.9 |
| 20260508065508 | 44 | 296 | 0.0 | 1.0 | 0.00 | 0.02 | 0.00 | 90 | 1011.9 |
| 20260508065006 | 44 | 296 | 0.0 | 1.0 | 0.00 | 0.02 | 0.00 | 90 | 1011.9 |
| 20260508064549 | 55 | 127 | 0.0 | 0.0 | 0.00 | 0.00 | 0.00 | 26 | 1016.3 |
| 20260508064519 | 44 | 298 | 0.0 | 1.0 | 0.00 | 0.02 | 0.00 | 90 | 1011.8 |
| 20260508064005 | 44 | 300 | 0.0 | 0.0 | 0.00 | 0.02 | 0.00 | 90 | 1011.7 |
| 20260508063504 | 44 | 300 | 0.0 | 1.0 | 0.00 | 0.02 | 0.00 | 90 | 1011.7 |
| 20260508063049 | 55 | 128 | 0.0 | 0.0 | 0.00 | 0.00 | 0.00 | 25 | 1016.3 |
| 20260508063006 | 44 | 300 | 0.0 | 1.0 | 0.00 | 0.02 | 0.00 | 90 | 1011.7 |
| 20260508062507 | 44 | 300 | 0.0 | 1.0 | 0.00 | 0.02 | 0.00 | 89 | 1011.6 |
| 20260508062003 | 44 | 306 | 0.0 | 1.0 | 0.00 | 0.02 | 0.00 | 89 | 1011.7 |
| 20260508061546 | 55 | 128 | 0.0 | 0.0 | 0.00 | 0.00 | 0.00 | 25 | 1016.2 |
| 20260508061515 | 45 | 306 | 0.0 | 1.0 | 0.00 | 0.02 | 0.00 | 89 | 1011.7 |
| 20260508061004 | 45 | 306 | 0.0 | 1.0 | 0.00 | 0.02 | 0.00 | 89 | 1011.7 |
| 20260508060507 | 45 | 306 | 0.0 | 1.0 | 0.00 | 0.02 | 0.00 | 89 | 1011.6 |
| 20260508060042 | 56 | 127 | 0.0 | 0.0 | 0.00 | 0.00 | 0.00 | 26 | 1016.3 |
| 20260508060017 | 45 | 306 | 0.0 | 1.0 | 0.00 | 0.02 | 0.00 | 89 | 1011.6 |
| 20260508055507 | 45 | 306 | 0.0 | 1.0 | 0.00 | 0.02 | 0.00 | 89 | 1011.6 |
| 20260508055006 | 45 | 306 | 0.0 | 0.0 | 0.00 | 0.02 | 0.00 | 89 | 1011.6 |
| 20260508054541 | 56 | 128 | 0.0 | 0.0 | 0.00 | 0.00 | 0.00 | 25 | 1016.6 |
| 20260508054522 | 45 | 306 | 0.0 | 0.0 | 0.00 | 0.02 | 0.00 | 88 | 1011.5 |
| 20260508054009 | 45 | 306 | 0.0 | 0.0 | 0.00 | 0.02 | 0.00 | 89 | 1011.5 |
| 20260508053504 | 45 | 306 | 0.0 | 1.0 | 0.00 | 0.02 | 0.00 | 89 | 1011.5 |
| 20260508053037 | 56 | 128 | 0.0 | 0.0 | 0.00 | 0.00 | 0.00 | 27 | 1016.7 |
| 20260508053020 | 45 | 306 | 0.0 | 1.0 | 0.00 | 0.02 | 0.00 | 88 | 1011.5 |
| 20260508052512 | 45 | 306 | 0.0 | 1.0 | 0.00 | 0.02 | 0.00 | 88 | 1011.4 |
| 20260508052004 | 45 | 306 | 0.0 | 1.0 | 0.00 | 0.02 | 0.00 | 88 | 1011.4 |
| 20260508051532 | 55 | 128 | 0.0 | 0.0 | 0.00 | 0.00 | 0.00 | 27 | 1016.9 |
| 20260508051515 | 46 | 306 | 0.0 | 1.0 | 0.00 | 0.02 | 0.00 | 88 | 1011.5 |
| 20260508051004 | 46 | 306 | 0.0 | 1.0 | 0.00 | 0.02 | 0.00 | 88 | 1011.4 |
| 20260508050504 | 46 | 306 | 0.0 | 0.0 | 0.00 | 0.02 | 0.00 | 88 | 1011.4 |
| 20260508050031 | 55 | 128 | 0.0 | 0.0 | 0.00 | 0.00 | 0.00 | 35 | 1016.9 |
| 20260508050011 | 46 | 306 | 0.0 | 0.0 | 0.00 | 0.02 | 0.00 | 87 | 1011.3 |
| 20260508045506 | 46 | 306 | 0.0 | 0.0 | 0.00 | 0.02 | 0.02 | 87 | 1011.3 |
| 20260508045005 | 47 | 306 | 0.0 | 0.0 | 0.00 | 0.02 | 0.02 | 87 | 1011.3 |
| 20260508044525 | 55 | 128 | 0.0 | 0.0 | 0.00 | 0.00 | 0.00 | 38 | 1017.1 |
| 20260508044516 | 47 | 306 | 0.0 | 0.0 | 0.00 | 0.02 | 0.02 | 87 | 1011.3 |
| 20260508044004 | 47 | 306 | 0.0 | 0.0 | 0.00 | 0.02 | 0.02 | 87 | 1011.3 |
| 20260508043503 | 47 | 306 | 0.0 | 1.0 | 0.00 | 0.02 | 0.02 | 87 | 1011.2 |
| 20260508043023 | 55 | 128 | 0.0 | 0.0 | 0.00 | 0.00 | 0.00 | 38 | 1017.1 |
| 20260508042508 | 47 | 306 | 0.0 | 1.0 | 0.00 | 0.02 | 0.02 | 87 | 1011.2 |
| 20260508042003 | 47 | 306 | 0.0 | 0.0 | 0.00 | 0.02 | 0.02 | 87 | 1011.1 |
| 20260508041521 | 56 | 128 | 0.0 | 0.0 | 0.00 | 0.00 | 0.00 | 38 | 1017.2 |
| 20260508041007 | 47 | 306 | 0.0 | 2.0 | 0.00 | 0.02 | 0.02 | 86 | 1011.2 |
| 20260508040504 | 47 | 278 | 0.0 | 2.0 | 0.00 | 0.02 | 0.02 | 86 | 1011.2 |
| 20260508040019 | 56 | 128 | 0.0 | 0.0 | 0.00 | 0.00 | 0.00 | 48 | 1017.0 |
| 20260508040013 | 47 | 224 | 0.0 | 0.0 | 0.00 | 0.02 | 0.02 | 86 | 1011.0 |
| 20260508035504 | 47 | 224 | 0.0 | 0.0 | 0.00 | 0.02 | 0.02 | 86 | 1010.8 |
| 20260508035004 | 47 | 224 | 0.0 | 0.0 | 0.00 | 0.02 | 0.02 | 85 | 1010.8 |
| 20260508034519 | 56 | 128 | 0.0 | 0.0 | 0.00 | 0.00 | 0.00 | 52 | 1016.9 |
| 20260508034517 | 48 | 224 | 0.0 | 0.0 | 0.00 | 0.02 | 0.02 | 84 | 1010.8 |
| 20260508034005 | 48 | 224 | 0.0 | 0.0 | 0.00 | 0.02 | 0.02 | 84 | 1010.9 |
| 20260508033507 | 48 | 224 | 0.0 | 0.0 | 0.00 | 0.02 | 0.02 | 84 | 1010.8 |
| 20260508033023 | 48 | 224 | 0.0 | 0.0 | 0.00 | 0.02 | 0.02 | 84 | 1010.8 |
| 20260508033016 | 56 | 128 | 0.0 | 0.0 | 0.00 | 0.00 | 0.00 | 56 | 1016.8 |
| 20260508032512 | 49 | 224 | 0.0 | 0.0 | 0.00 | 0.02 | 0.02 | 83 | 1010.7 |
| 20260508032008 | 49 | 224 | 0.0 | 0.0 | 0.00 | 0.02 | 0.02 | 83 | 1010.8 |
| 20260508031523 | 49 | 224 | 0.0 | 0.0 | 0.00 | 0.02 | 0.02 | 82 | 1010.8 |
| 20260508031514 | 57 | 128 | 0.0 | 0.0 | 0.00 | 0.00 | 0.00 | 57 | 1016.4 |
| 20260508031010 | 49 | 224 | 0.0 | 0.0 | 0.00 | 0.02 | 0.02 | 81 | 1010.8 |
| 20260508030508 | 49 | 224 | 0.0 | 0.0 | 0.00 | 0.02 | 0.02 | 80 | 1010.8 |
| 20260508030020 | 49 | 224 | 0.0 | 0.0 | 0.00 | 0.02 | 0.02 | 80 | 1010.7 |
| 20260508030013 | 59 | 127 | 0.0 | 0.0 | 0.00 | 0.00 | 0.00 | 57 | 1016.4 |
| 20260508025506 | 50 | 224 | 0.0 | 0.0 | 0.00 | 0.02 | 0.02 | 80 | 1010.6 |
| 20260508025003 | 50 | 224 | 0.0 | 1.0 | 0.00 | 0.02 | 0.02 | 79 | 1010.6 |
| 20260508024513 | 51 | 224 | 0.0 | 1.0 | 0.00 | 0.02 | 0.02 | 79 | 1010.6 |
| 20260508024511 | 60 | 128 | 0.0 | 0.0 | 0.00 | 0.00 | 0.00 | 57 | 1016.1 |
| 20260508024004 | 51 | 224 | 0.0 | 0.0 | 0.00 | 0.02 | 0.02 | 78 | 1010.6 |
| 20260508023504 | 51 | 224 | 0.0 | 0.0 | 0.00 | 0.02 | 0.02 | 77 | 1010.5 |
| 20260508023018 | 51 | 224 | 0.0 | 0.0 | 0.00 | 0.02 | 0.02 | 76 | 1010.5 |
| 20260508023008 | 60 | 128 | 0.0 | 0.0 | 0.00 | 0.00 | 0.00 | 58 | 1016.1 |
| 20260508022506 | 51 | 224 | 0.0 | 0.0 | 0.00 | 0.02 | 0.02 | 77 | 1010.5 |
| 20260508022007 | 51 | 224 | 0.0 | 0.0 | 0.00 | 0.02 | 0.02 | 76 | 1010.4 |
| 20260508021522 | 51 | 224 | 0.0 | 0.0 | 0.00 | 0.02 | 0.02 | 76 | 1010.4 |
| 20260508021518 | 61 | 128 | 0.0 | 0.0 | 0.00 | 0.00 | 0.00 | 58 | 1015.7 |
| 20260508021007 | 51 | 224 | 0.0 | 0.0 | 0.00 | 0.02 | 0.02 | 76 | 1010.4 |
| 20260508020506 | 51 | 224 | 0.0 | 0.0 | 0.00 | 0.02 | 0.02 | 75 | 1010.3 |
| 20260508020022 | 51 | 224 | 0.0 | 0.0 | 0.00 | 0.02 | 0.02 | 75 | 1010.3 |
| 20260508020004 | 61 | 128 | 0.0 | 0.0 | 0.00 | 0.00 | 0.00 | 57 | 1015.9 |
| 20260508015505 | 52 | 224 | 0.0 | 0.0 | 0.00 | 0.02 | 0.02 | 74 | 1010.1 |
| 20260508015005 | 52 | 224 | 0.0 | 0.0 | 0.00 | 0.02 | 0.02 | 74 | 1010.1 |
| 20260508014522 | 52 | 224 | 0.0 | 0.0 | 0.00 | 0.02 | 0.02 | 72 | 1010.1 |
| 20260508014502 | 62 | 128 | 0.0 | 0.0 | 0.00 | 0.00 | 0.00 | 56 | 1015.9 |
| 20260508014005 | 53 | 224 | 0.0 | 0.0 | 0.00 | 0.02 | 0.02 | 71 | 1009.9 |
| 20260508013502 | 53 | 224 | 0.0 | 0.0 | 0.00 | 0.02 | 0.02 | 71 | 1009.9 |
| 20260508013101 | 63 | 128 | 0.0 | 1.0 | 0.00 | 0.00 | 0.00 | 56 | 1015.9 |
| 20260508013015 | 54 | 224 | 0.0 | 0.0 | 0.00 | 0.02 | 0.02 | 70 | 1009.8 |
| 20260508012504 | 55 | 224 | 0.0 | 0.0 | 0.00 | 0.02 | 0.02 | 69 | 1009.7 |
| 20260508012007 | 56 | 224 | 0.0 | 0.0 | 0.00 | 0.02 | 0.02 | 67 | 1009.7 |
| 20260508011558 | 63 | 131 | 0.0 | 0.0 | 0.00 | 0.00 | 0.00 | 55 | 1016.2 |
| 20260508011525 | 57 | 224 | 0.0 | 0.0 | 0.00 | 0.02 | 0.02 | 65 | 1009.7 |
| 20260508011013 | 57 | 224 | 0.0 | 0.0 | 0.00 | 0.02 | 0.02 | 62 | 1009.6 |
| 20260508010507 | 57 | 224 | 0.0 | 2.0 | 0.00 | 0.02 | 0.02 | 57 | 1009.6 |
| 20260508010054 | 64 | 131 | 0.0 | 0.0 | 0.00 | 0.00 | 0.00 | 54 | 1016.1 |
| 20260508010024 | 58 | 224 | 0.0 | 3.0 | 0.00 | 0.02 | 0.02 | 54 | 1009.6 |
| 20260508005506 | 58 | 224 | 0.0 | 3.0 | 0.00 | 0.02 | 0.02 | 53 | 1009.6 |
| 20260508005006 | 58 | 214 | 1.0 | 3.0 | 0.00 | 0.02 | 0.02 | 53 | 1009.6 |
| 20260508004653 | 65 | 131 | 0.0 | 0.0 | 0.00 | 0.00 | 0.00 | 54 | 1016.4 |
| 20260508004526 | 59 | 217 | 0.0 | 4.0 | 0.00 | 0.02 | 0.02 | 53 | 1009.5 |
| 20260508004010 | 59 | 242 | 2.0 | 5.0 | 0.00 | 0.02 | 0.02 | 51 | 1009.5 |
| 20260508003507 | 60 | 238 | 3.0 | 5.0 | 0.00 | 0.02 | 0.02 | 51 | 1009.5 |
| 20260508003051 | 65 | 131 | 0.0 | 5.0 | 0.00 | 0.00 | 0.00 | 52 | 1016.0 |
| 20260508003024 | 60 | 240 | 2.0 | 5.0 | 0.00 | 0.02 | 0.02 | 51 | 1009.5 |
| 20260508002505 | 60 | 232 | 2.0 | 7.0 | 0.00 | 0.02 | 0.02 | 51 | 1009.6 |
| 20260508002007 | 61 | 223 | 3.0 | 6.0 | 0.00 | 0.02 | 0.02 | 51 | 1009.5 |
| 20260508001547 | 66 | 116 | 2.0 | 3.0 | 0.00 | 0.00 | 0.00 | 51 | 1016.2 |
| 20260508001517 | 61 | 219 | 2.0 | 8.0 | 0.00 | 0.02 | 0.02 | 51 | 1009.5 |
| 20260508001004 | 61 | 235 | 2.0 | 8.0 | 0.00 | 0.02 | 0.02 | 51 | 1009.4 |
| 20260508000510 | 61 | 227 | 2.0 | 7.0 | 0.00 | 0.02 | 0.02 | 51 | 1009.4 |
| 20260508000045 | 66 | 191 | 0.0 | 1.0 | 0.00 | 0.00 | 0.00 | 52 | 1016.3 |
| 20260508000019 | 61 | 235 | 2.0 | 8.0 | 0.00 | 0.02 | 0.02 | 51 | 1009.4 |
| 20260507235507 | 61 | 218 | 3.0 | 10.0 | 0.00 | 0.02 | 0.02 | 51 | 1009.4 |
| 20260507235006 | 60 | 202 | 3.0 | 10.0 | 0.00 | 0.02 | 0.02 | 51 | 1009.4 |
| 20260507234544 | 66 | 179 | 0.0 | 1.0 | 0.00 | 0.00 | 0.00 | 51 | 1016.6 |
| 20260507234523 | 60 | 225 | 5.0 | 10.0 | 0.00 | 0.02 | 0.02 | 51 | 1009.4 |
| 20260507234004 | 60 | 196 | 4.0 | 10.0 | 0.00 | 0.02 | 0.02 | 52 | 1009.4 |
| 20260507233507 | 60 | 212 | 4.0 | 10.0 | 0.00 | 0.02 | 0.02 | 54 | 1009.5 |
| 20260507233042 | 67 | 293 | 0.0 | 1.0 | 0.00 | 0.00 | 0.00 | 50 | 1016.7 |
| 20260507233011 | 60 | 246 | 3.0 | 10.0 | 0.00 | 0.02 | 0.02 | 54 | 1009.5 |
| 20260507232502 | 61 | 229 | 4.0 | 8.0 | 0.00 | 0.02 | 0.02 | 55 | 1009.5 |
| 20260507232007 | 60 | 234 | 3.0 | 8.0 | 0.00 | 0.02 | 0.02 | 57 | 1009.6 |
| 20260507231546 | 66 | 116 | 0.0 | 2.0 | 0.00 | 0.00 | 0.00 | 50 | 1016.6 |
| 20260507231522 | 60 | 207 | 4.0 | 7.0 | 0.00 | 0.02 | 0.02 | 58 | 1009.6 |
| 20260507231004 | 60 | 205 | 2.0 | 13.0 | 0.00 | 0.02 | 0.02 | 59 | 1009.5 |
| 20260507230506 | 59 | 198 | 2.0 | 13.0 | 0.00 | 0.02 | 0.02 | 59 | 1009.7 |
| 20260507230037 | 66 | 145 | 0.0 | 0.0 | 0.00 | 0.00 | 0.00 | 51 | 1016.8 |
| 20260507230019 | 59 | 259 | 2.0 | 8.0 | 0.00 | 0.02 | 0.02 | 63 | 1009.7 |
| 20260507225506 | 59 | 222 | 2.0 | 8.0 | 0.01 | 0.02 | 0.02 | 63 | 1009.7 |
| 20260507225005 | 58 | 225 | 2.0 | 7.0 | 0.01 | 0.02 | 0.02 | 66 | 1009.9 |
| 20260507224537 | 66 | 123 | 0.0 | 0.0 | 0.00 | 0.00 | 0.00 | 53 | 1017.3 |
| 20260507224522 | 57 | 204 | 2.0 | 7.0 | 0.01 | 0.02 | 0.02 | 65 | 1010.0 |
| 20260507224006 | 57 | 182 | 1.0 | 5.0 | 0.01 | 0.02 | 0.02 | 66 | 1010.1 |
| 20260507223516 | 57 | 175 | 2.0 | 8.0 | 0.01 | 0.02 | 0.02 | 66 | 1010.2 |
| 20260507223034 | 65 | 277 | 4.0 | 6.0 | 0.00 | 0.00 | 0.00 | 52 | 1017.4 |
| 20260507223006 | 56 | 203 | 4.0 | 8.0 | 0.01 | 0.02 | 0.02 | 69 | 1010.1 |
| 20260507222505 | 56 | 213 | 4.0 | 7.0 | 0.01 | 0.02 | 0.02 | 71 | 1010.1 |
| 20260507222004 | 55 | 227 | 1.0 | 5.0 | 0.01 | 0.02 | 0.02 | 74 | 1010.1 |
| 20260507221533 | 66 | 53 | 0.0 | 3.0 | 0.00 | 0.00 | 0.00 | 49 | 1016.6 |
| 20260507221514 | 53 | 192 | 2.0 | 6.0 | 0.02 | 0.02 | 0.02 | 74 | 1010.2 |
| 20260507221003 | 53 | 250 | 2.0 | 9.0 | 0.02 | 0.02 | 0.02 | 74 | 1010.1 |
| 20260507220505 | 52 | 42 | 2.0 | 16.0 | 0.02 | 0.02 | 0.02 | 72 | 1010.7 |
| 20260507220026 | 66 | 129 | 3.0 | 6.0 | 0.00 | 0.00 | 0.00 | 47 | 1016.9 |
| 20260507220021 | 52 | 294 | 7.0 | 16.0 | 0.02 | 0.02 | 0.02 | 72 | 1010.9 |
| 20260507215509 | 52 | 21 | 2.0 | 7.0 | 0.01 | 0.01 | 0.01 | 76 | 1011.0 |
| 20260507215011 | 51 | 263 | 2.0 | 7.0 | 0.01 | 0.01 | 0.01 | 75 | 1010.8 |
| 20260507214528 | 67 | 88 | 1.0 | 6.0 | 0.00 | 0.00 | 0.00 | 46 | 1017.0 |
| 20260507214521 | 51 | 286 | 2.0 | 6.0 | 0.01 | 0.01 | 0.01 | 75 | 1010.7 |
| 20260507214007 | 51 | 311 | 2.0 | 6.0 | 0.01 | 0.01 | 0.01 | 74 | 1010.4 |
| 20260507213510 | 51 | 313 | 2.0 | 11.0 | 0.01 | 0.01 | 0.01 | 73 | 1010.4 |
| 20260507213028 | 52 | 306 | 3.0 | 11.0 | 0.01 | 0.01 | 0.01 | 71 | 1010.3 |
| 20260507213024 | 67 | 11 | 0.0 | 6.0 | 0.00 | 0.00 | 0.00 | 48 | 1017.3 |
| 20260507212510 | 52 | 12 | 4.0 | 15.0 | 0.01 | 0.01 | 0.01 | 68 | 1010.2 |
| 20260507212011 | 54 | 332 | 6.0 | 15.0 | 0.01 | 0.01 | 0.01 | 65 | 1010.3 |
| 20260507211520 | 67 | 84 | 0.0 | 4.0 | 0.00 | 0.00 | 0.00 | 48 | 1017.2 |
| 20260507211511 | 56 | 338 | 6.0 | 22.0 | 0.00 | 0.00 | 0.00 | 59 | 1010.3 |
| 20260507211004 | 57 | 290 | 5.0 | 24.0 | 0.00 | 0.00 | 0.00 | 53 | 1010.0 |
| 20260507210506 | 59 | 288 | 9.0 | 24.0 | 0.00 | 0.00 | 0.00 | 46 | 1010.3 |
| 20260507210032 | 67 | 86 | 1.0 | 3.0 | 0.00 | 0.00 | 0.00 | 46 | 1017.6 |
| 20260507210016 | 60 | 215 | 7.0 | 21.0 | 0.00 | 0.00 | 0.00 | 48 | 1009.8 |
| 20260507205504 | 60 | 245 | 8.0 | 21.0 | 0.00 | 0.00 | 0.00 | 49 | 1009.8 |
| 20260507205009 | 60 | 207 | 5.0 | 12.0 | 0.00 | 0.00 | 0.00 | 50 | 1009.8 |
| 20260507204518 | 60 | 199 | 5.0 | 15.0 | 0.00 | 0.00 | 0.00 | 50 | 1009.8 |
| 20260507204514 | 67 | 38 | 0.0 | 2.0 | 0.00 | 0.00 | 0.00 | 47 | 1018.0 |
| 20260507204012 | 60 | 254 | 7.0 | 18.0 | 0.00 | 0.00 | 0.00 | 49 | 1009.9 |
| 20260507203510 | 61 | 211 | 6.0 | 18.0 | 0.00 | 0.00 | 0.00 | 48 | 1009.8 |
| 20260507203026 | 61 | 211 | 9.0 | 22.0 | 0.00 | 0.00 | 0.00 | 48 | 1010.0 |
| 20260507203011 | 67 | 51 | 1.0 | 5.0 | 0.00 | 0.00 | 0.00 | 46 | 1017.8 |
| 20260507202506 | 61 | 163 | 7.0 | 22.0 | 0.00 | 0.00 | 0.00 | 48 | 1009.9 |
| 20260507202010 | 61 | 198 | 6.0 | 18.0 | 0.00 | 0.00 | 0.00 | 48 | 1010.1 |
| 20260507201527 | 61 | 200 | 4.0 | 18.0 | 0.00 | 0.00 | 0.00 | 49 | 1010.2 |
| 20260507201510 | 68 | 79 | 0.0 | 5.0 | 0.00 | 0.00 | 0.00 | 46 | 1018.2 |
| 20260507201006 | 60 | 254 | 8.0 | 17.0 | 0.00 | 0.00 | 0.00 | 50 | 1010.2 |
| 20260507200504 | 60 | 174 | 5.0 | 17.0 | 0.00 | 0.00 | 0.00 | 49 | 1010.3 |
| 20260507200016 | 60 | 178 | 8.0 | 17.0 | 0.00 | 0.00 | 0.00 | 49 | 1010.6 |
| 20260507200006 | 68 | 62 | 4.0 | 6.0 | 0.00 | 0.00 | 0.00 | 45 | 1018.4 |
| 20260507195504 | 60 | 251 | 7.0 | 17.0 | 0.00 | 0.00 | 0.00 | 49 | 1010.6 |
| 20260507195006 | 60 | 209 | 8.0 | 17.0 | 0.00 | 0.00 | 0.00 | 50 | 1010.6 |
| 20260507194518 | 60 | 173 | 9.0 | 22.0 | 0.00 | 0.00 | 0.00 | 50 | 1010.8 |
| 20260507194504 | 68 | 38 | 3.0 | 6.0 | 0.00 | 0.00 | 0.00 | 45 | 1018.6 |
| 20260507194005 | 59 | 226 | 11.0 | 22.0 | 0.00 | 0.00 | 0.00 | 49 | 1010.8 |
| 20260507193506 | 59 | 217 | 8.0 | 21.0 | 0.00 | 0.00 | 0.00 | 49 | 1010.9 |
| 20260507193020 | 59 | 273 | 11.0 | 21.0 | 0.00 | 0.00 | 0.00 | 48 | 1011.1 |
| 20260507193004 | 69 | 104 | 4.0 | 8.0 | 0.00 | 0.00 | 0.00 | 43 | 1018.4 |
| 20260507192507 | 60 | 210 | 9.0 | 18.0 | 0.00 | 0.00 | 0.00 | 48 | 1011.2 |
| 20260507192016 | 60 | 170 | 10.0 | 25.0 | 0.00 | 0.00 | 0.00 | 46 | 1011.3 |
| 20260507191558 | 68 | 26 | 4.0 | 9.0 | 0.00 | 0.00 | 0.00 | 46 | 1018.3 |
| 20260507191524 | 60 | 238 | 10.0 | 25.0 | 0.00 | 0.00 | 0.00 | 45 | 1011.4 |
| 20260507191007 | 61 | 225 | 7.0 | 20.0 | 0.00 | 0.00 | 0.00 | 44 | 1011.4 |
| 20260507190511 | 61 | 231 | 10.0 | 29.0 | 0.00 | 0.00 | 0.00 | 43 | 1011.4 |
| 20260507190056 | 67 | 64 | 5.0 | 8.0 | 0.00 | 0.00 | 0.00 | 46 | 1018.5 |
| 20260507190025 | 61 | 223 | 8.0 | 29.0 | 0.00 | 0.00 | 0.00 | 42 | 1011.2 |
| 20260507185507 | 60 | 235 | 7.0 | 19.0 | 0.00 | 0.00 | 0.00 | 41 | 1011.3 |
| 20260507185003 | 60 | 261 | 13.0 | 19.0 | 0.00 | 0.00 | 0.00 | 41 | 1011.5 |
| 20260507184603 | 66 | 61 | 3.0 | 6.0 | 0.00 | 0.00 | 0.00 | 47 | 1018.8 |
| 20260507184514 | 61 | 265 | 6.0 | 19.0 | 0.00 | 0.00 | 0.00 | 40 | 1011.5 |
| 20260507184006 | 61 | 215 | 10.0 | 18.0 | 0.00 | 0.00 | 0.00 | 41 | 1011.5 |
| 20260507183504 | 60 | 194 | 6.0 | 21.0 | 0.00 | 0.00 | 0.00 | 41 | 1011.4 |
| 20260507183050 | 67 | 56 | 2.0 | 7.0 | 0.00 | 0.00 | 0.00 | 45 | 1019.4 |
| 20260507183032 | 60 | 198 | 8.0 | 22.0 | 0.00 | 0.00 | 0.00 | 40 | 1011.6 |
| 20260507182504 | 60 | 227 | 10.0 | 22.0 | 0.00 | 0.00 | 0.00 | 39 | 1011.7 |
| 20260507182007 | 60 | 241 | 7.0 | 18.0 | 0.00 | 0.00 | 0.00 | 38 | 1011.7 |
| 20260507181547 | 67 | 46 | 1.0 | 6.0 | 0.00 | 0.00 | 0.00 | 45 | 1019.4 |
| 20260507181522 | 60 | 197 | 9.0 | 18.0 | 0.00 | 0.00 | 0.00 | 37 | 1011.7 |
| 20260507181013 | 60 | 243 | 9.0 | 16.0 | 0.00 | 0.00 | 0.00 | 38 | 1011.8 |
| 20260507180509 | 60 | 240 | 3.0 | 11.0 | 0.00 | 0.00 | 0.00 | 39 | 1011.8 |
| 20260507180045 | 68 | 72 | 3.0 | 8.0 | 0.00 | 0.00 | 0.00 | 45 | 1019.6 |
| 20260507180036 | 60 | 200 | 5.0 | 12.0 | 0.00 | 0.00 | 0.00 | 38 | 1012.0 |
| 20260507175509 | 60 | 267 | 4.0 | 12.0 | 0.00 | 0.00 | 0.00 | 39 | 1012.1 |
| 20260507175008 | 59 | 231 | 4.0 | 20.0 | 0.00 | 0.00 | 0.00 | 38 | 1012.2 |
| 20260507174548 | 68 | 53 | 1.0 | 7.0 | 0.00 | 0.00 | 0.00 | 48 | 1019.7 |
| 20260507174534 | 59 | 207 | 5.0 | 20.0 | 0.00 | 0.00 | 0.00 | 39 | 1012.4 |
| 20260507174004 | 60 | 199 | 8.0 | 14.0 | 0.00 | 0.00 | 0.00 | 38 | 1012.5 |
| 20260507173513 | 60 | 152 | 2.0 | 16.0 | 0.00 | 0.00 | 0.00 | 39 | 1012.6 |
| 20260507173040 | 69 | 70 | 3.0 | 8.0 | 0.00 | 0.00 | 0.00 | 46 | 1019.6 |
| 20260507173017 | 60 | 232 | 8.0 | 16.0 | 0.00 | 0.00 | 0.00 | 38 | 1012.7 |
| 20260507172505 | 59 | 206 | 3.0 | 14.0 | 0.00 | 0.00 | 0.00 | 39 | 1012.7 |
| 20260507172008 | 59 | 192 | 6.0 | 14.0 | 0.00 | 0.00 | 0.00 | 38 | 1012.8 |
| 20260507171540 | 68 | 77 | 1.0 | 11.0 | 0.00 | 0.00 | 0.00 | 47 | 1019.7 |
| 20260507171522 | 59 | 218 | 6.0 | 13.0 | 0.00 | 0.00 | 0.00 | 40 | 1013.0 |
| 20260507171009 | 58 | 186 | 3.0 | 12.0 | 0.00 | 0.00 | 0.00 | 39 | 1013.1 |
| 20260507170511 | 58 | 180 | 4.0 | 12.0 | 0.00 | 0.00 | 0.00 | 39 | 1013.3 |
| 20260507170029 | 66 | 61 | 3.0 | 8.0 | 0.00 | 0.00 | 0.00 | 49 | 1019.5 |
| 20260507170026 | 58 | 271 | 4.0 | 12.0 | 0.00 | 0.00 | 0.00 | 38 | 1013.2 |
| 20260507165508 | 58 | 194 | 4.0 | 12.0 | 0.00 | 0.00 | 0.00 | 38 | 1013.2 |
| 20260507165010 | 58 | 87 | 2.0 | 12.0 | 0.00 | 0.00 | 0.00 | 39 | 1013.3 |
| 20260507164527 | 58 | 208 | 4.0 | 12.0 | 0.00 | 0.00 | 0.00 | 39 | 1013.4 |
| 20260507164009 | 58 | 214 | 7.0 | 12.0 | 0.00 | 0.00 | 0.00 | 38 | 1013.6 |
| 20260507163508 | 57 | 92 | 2.0 | 9.0 | 0.00 | 0.00 | 0.00 | 39 | 1013.6 |
| 20260507163025 | 57 | 198 | 4.0 | 10.0 | 0.00 | 0.00 | 0.00 | 40 | 1013.8 |
| 20260507163021 | 65 | 42 | 5.0 | 10.0 | 0.00 | 0.00 | 0.00 | 48 | 1020.3 |
| 20260507162504 | 56 | 346 | 4.0 | 10.0 | 0.00 | 0.00 | 0.00 | 41 | 1013.9 |
| 20260507162007 | 56 | 214 | 2.0 | 10.0 | 0.00 | 0.00 | 0.00 | 39 | 1014.0 |
| 20260507161533 | 56 | 265 | 3.0 | 10.0 | 0.00 | 0.00 | 0.00 | 39 | 1014.1 |
| 20260507161520 | 63 | 50 | 4.0 | 10.0 | 0.00 | 0.00 | 0.00 | 49 | 1020.5 |
| 20260507161008 | 56 | 182 | 3.0 | 10.0 | 0.00 | 0.00 | 0.00 | 39 | 1014.2 |
| 20260507160510 | 55 | 211 | 4.0 | 11.0 | 0.00 | 0.00 | 0.00 | 40 | 1014.4 |
| 20260507160034 | 55 | 198 | 5.0 | 11.0 | 0.00 | 0.00 | 0.00 | 42 | 1014.4 |
| 20260507160021 | 65 | 7 | 6.0 | 10.0 | 0.00 | 0.00 | 0.00 | 48 | 1020.6 |
| 20260507155506 | 54 | 43 | 3.0 | 10.0 | 0.00 | 0.00 | 0.00 | 41 | 1014.4 |
| 20260507155010 | 53 | 298 | 4.0 | 10.0 | 0.00 | 0.00 | 0.00 | 43 | 1014.5 |
| 20260507154532 | 53 | 280 | 3.0 | 9.0 | 0.00 | 0.00 | 0.00 | 41 | 1014.4 |
| 20260507154524 | 64 | 15 | 5.0 | 9.0 | 0.00 | 0.01 | 0.00 | 49 | 1020.5 |
| 20260507154010 | 53 | 164 | 2.0 | 7.0 | 0.00 | 0.00 | 0.00 | 43 | 1014.5 |
| 20260507153510 | 53 | 247 | 3.0 | 10.0 | 0.00 | 0.00 | 0.00 | 42 | 1014.5 |
| 20260507153026 | 53 | 265 | 4.0 | 10.0 | 0.00 | 0.00 | 0.00 | 42 | 1014.7 |
| 20260507153019 | 64 | 328 | 4.0 | 10.0 | 0.00 | 0.01 | 0.00 | 50 | 1020.6 |
| 20260507152512 | 53 | 186 | 2.0 | 10.0 | 0.00 | 0.00 | 0.00 | 43 | 1014.8 |
| 20260507152011 | 53 | 216 | 3.0 | 10.0 | 0.00 | 0.00 | 0.00 | 43 | 1014.8 |
| 20260507151533 | 52 | 141 | 4.0 | 10.0 | 0.00 | 0.00 | 0.00 | 45 | 1014.9 |
| 20260507151505 | 63 | 297 | 5.0 | 9.0 | 0.00 | 0.01 | 0.00 | 50 | 1020.5 |
| 20260507151006 | 52 | 294 | 5.0 | 8.0 | 0.00 | 0.00 | 0.00 | 45 | 1015.0 |
| 20260507150507 | 52 | 261 | 4.0 | 8.0 | 0.00 | 0.00 | 0.00 | 45 | 1015.0 |
| 20260507150101 | 62 | 13 | 2.0 | 10.0 | 0.00 | 0.01 | 0.00 | 51 | 1020.6 |
| 20260507150021 | 51 | 248 | 3.0 | 7.0 | 0.00 | 0.00 | 0.00 | 46 | 1015.1 |
| 20260507145507 | 51 | 146 | 2.0 | 8.0 | 0.00 | 0.00 | 0.00 | 47 | 1015.1 |
| 20260507145007 | 50 | 216 | 3.0 | 9.0 | 0.00 | 0.00 | 0.00 | 46 | 1015.1 |
| 20260507144559 | 61 | 44 | 4.0 | 10.0 | 0.00 | 0.01 | 0.00 | 50 | 1020.8 |
| 20260507144524 | 50 | 220 | 2.0 | 9.0 | 0.00 | 0.00 | 0.00 | 47 | 1015.2 |
| 20260507144011 | 51 | 284 | 2.0 | 8.0 | 0.00 | 0.00 | 0.00 | 47 | 1015.5 |
| 20260507143511 | 50 | 188 | 3.0 | 8.0 | 0.00 | 0.00 | 0.00 | 48 | 1015.5 |
| 20260507143101 | 60 | 34 | 3.0 | 8.0 | 0.00 | 0.01 | 0.00 | 49 | 1020.8 |
| 20260507143027 | 50 | 279 | 3.0 | 6.0 | 0.00 | 0.00 | 0.00 | 49 | 1015.4 |
| 20260507142507 | 49 | 246 | 3.0 | 6.0 | 0.00 | 0.00 | 0.00 | 50 | 1015.5 |
| 20260507142010 | 49 | 249 | 3.0 | 8.0 | 0.00 | 0.00 | 0.00 | 50 | 1015.6 |
| 20260507141545 | 58 | 56 | 1.0 | 7.0 | 0.00 | 0.01 | 0.00 | 50 | 1020.9 |
| 20260507141530 | 49 | 275 | 4.0 | 8.0 | 0.00 | 0.00 | 0.00 | 48 | 1015.6 |
| 20260507141007 | 49 | 253 | 4.0 | 8.0 | 0.00 | 0.00 | 0.00 | 50 | 1015.6 |
| 20260507140503 | 48 | 215 | 1.0 | 6.0 | 0.00 | 0.00 | 0.00 | 50 | 1015.6 |
| 20260507140041 | 57 | 105 | 1.0 | 7.0 | 0.00 | 0.01 | 0.00 | 48 | 1020.9 |
| 20260507140020 | 48 | 199 | 2.0 | 5.0 | 0.00 | 0.00 | 0.00 | 50 | 1015.5 |
| 20260507135506 | 48 | 239 | 2.0 | 5.0 | 0.00 | 0.00 | 0.00 | 51 | 1015.5 |
| 20260507135011 | 48 | 230 | 2.0 | 7.0 | 0.00 | 0.00 | 0.00 | 53 | 1015.6 |
| 20260507134538 | 56 | 358 | 3.0 | 7.0 | 0.00 | 0.01 | 0.00 | 44 | 1021.0 |
| 20260507134516 | 47 | 191 | 3.0 | 7.0 | 0.00 | 0.00 | 0.00 | 53 | 1015.7 |
| 20260507134003 | 47 | 172 | 2.0 | 6.0 | 0.00 | 0.00 | 0.00 | 53 | 1015.8 |
| 20260507133507 | 46 | 226 | 2.0 | 9.0 | 0.00 | 0.00 | 0.00 | 54 | 1015.8 |